Powrót do katalogu

AEHF 4

USA 288

AktywnyMilitariaGEO
NORAD 43651·PAYLOAD·🇺🇸 United States

Wystrzelony Oct 17, 2018 z Cape Canaveral Space Force Station

Loading…

TLE

ŚwieżeSource: Space-Track

Epoka: Sep 14, 2026, 13:29 UTC

1 43651U 18079A   26257.56184095 -.00000282  00000-0  00000-0 0  9997
2 43651   1.4210 358.1377 0068653   0.8182 129.1944  1.00267305 29195

Śledź AEHF 4 w czasie rzeczywistym z AllMySat

Download on the App Store